User: anonymous   Login
Location: Henham
(51.9333°N, 0.2500°E)
Time: 00:29:36
(UTC+00:00)
Language:

Cosmos 1908 - Orbit

View from above orbital plane
View from above orbital plane
View from above satellite
View from above satellite

Ground track
Ground track

The orbit data is extracted from the following two-line orbital elements,

1 18748U 88001A   19341.14106699  .00000176  00000-0  77714-5 0  9994
2 18748  82.4738 249.3378 0013980  15.0955 345.0691 15.14761914742419
Epoch (UTC): 07 December 2019 03:23:08
Eccentricity: 0.0013980
inclination: 82.4738°
perigee height: 512 km
apogee height: 531 km
right ascension of ascending node: 249.3378°
argument of perigee: 15.0955°
revolutions per day: 15.14761914
mean anomaly at epoch: 345.0691°
orbit number at epoch: 74241

The dashed part of the orbit path shows where the satellite is in the earth's shadow,  

DLR